Location: Zagreb
(45.8000°N, 16.0000°E)
Time: 18:39:47
(UTC+02:00)

A-11 Canister half - Pass Details

Date: 14 August 2022
Orbit: 1524 x 1684 km, 47.3° (Epoch: 05 October)

Event Time Altitude Azimuth Distance (km) Brightness Sun altitude
Rises 13:49:57 0° 289° (WNW) 4,916 11.7 56.8°
Reaches altitude 10° 13:54:37 10° 271° (W) 3,901 11.4 56.5°
Maximum altitude 14:00:16 17° 236° (SW) 3,336 11.6 56.1°
Drops below altitude 10° 14:05:51 10° 200° (SSW) 3,821 11.8 55.6°
Sets 14:10:24 0° 182° (S) 4,770 12.0 55.2°
